2015090100 , 00 , 24
2015090101 , 01 , 25
2015090102 , 02 , 24
2015090103 , 03 , 17
2015090104 , 04 , 15
2015090105 , 05 , 11
2015090106 , 06 , 26
2015090107 , 07 , 14
2015090108 , 08 , 15
2015090109 , 09 , 19
2015090110 , 10 , 19
2015090111 , 11 , 19
2015090112 , 12 , 9
2015090113 , 13 , 21
2015090114 , 14 , 15
2015090115 , 15 , 16
2015090116 , 16 , 9
2015090117 , 17 , 11
2015090118 , 18 , 13
2015090119 , 19 , 14
2015090120 , 20 , 9
2015090121 , 21 , 17
2015090122 , 22 , 11
2015090123 , 23 , 19
2015090200 , 00 , 19
2015090201 , 01 , 13
2015090202 , 02 , 19
2015090203 , 03 , 13
2015090204 , 04 , 24
2015090205 , 05 , 12
2015090206 , 06 , 21
2015090207 , 07 , 28
2015090208 , 08 , 31
2015090209 , 09 , 17
2015090210 , 10 , 15
2015090211 , 11 , 13
2015090212 , 12 , 14
2015090213 , 13 , 26
2015090214 , 14 , 15
2015090215 , 15 , 14
2015090216 , 16 , 15
2015090217 , 17 , 13
2015090218 , 18 , 16
2015090219 , 19 , 17
2015090220 , 20 , 10
2015090221 , 21 , 15
2015090222 , 22 , 20
2015090223 , 23 , 29
2015090300 , 00 , 22
2015090301 , 01 , 18
2015090302 , 02 , 24
2015090303 , 03 , 16
2015090304 , 04 , 23
2015090305 , 05 , 21
2015090306 , 06 , 19
2015090307 , 07 , 15
2015090308 , 08 , 28
2015090309 , 09 , 14
2015090310 , 10 , 18
2015090311 , 11 , 14
2015090312 , 12 , 23
2015090313 , 13 , 23
2015090314 , 14 , 15
2015090315 , 15 , 23
2015090316 , 16 , 15
2015090317 , 17 , 11
2015090318 , 18 , 22
2015090319 , 19 , 15
2015090320 , 20 , 22
2015090321 , 21 , 22
2015090322 , 22 , 19
2015090323 , 23 , 25
2015090400 , 00 , 20
2015090401 , 01 , 27
2015090402 , 02 , 15
2015090403 , 03 , 18
2015090404 , 04 , 22
2015090405 , 05 , 21
2015090406 , 06 , 30
2015090407 , 07 , 20
2015090408 , 08 , 21
2015090409 , 09 , 21
2015090410 , 10 , 18
2015090411 , 11 , 13
2015090412 , 12 , 19
2015090413 , 13 , 17
2015090414 , 14 , 8
2015090415 , 15 , 26
2015090416 , 16 , 15
2015090417 , 17 , 17
2015090418 , 18 , 17
2015090419 , 19 , 20
2015090420 , 20 , 9
2015090421 , 21 , 21
2015090422 , 22 , 22
2015090423 , 23 , 21
2015090500 , 00 , 16
2015090501 , 01 , 15
2015090502 , 02 , 13
2015090503 , 03 , 19
2015090504 , 04 , 26
2015090505 , 05 , 16
2015090506 , 06 , 29
2015090507 , 07 , 24
2015090508 , 08 , 19
2015090509 , 09 , 18
2015090510 , 10 , 27
2015090511 , 11 , 20
2015090512 , 12 , 16
2015090513 , 13 , 21
2015090514 , 14 , 22
2015090515 , 15 , 13
2015090516 , 16 , 23
2015090517 , 17 , 25
2015090518 , 18 , 21
2015090519 , 19 , 15
2015090520 , 20 , 17
2015090521 , 21 , 18
2015090522 , 22 , 24
2015090523 , 23 , 33
2015090600 , 00 , 20
2015090601 , 01 , 19
2015090602 , 02 , 21
2015090603 , 03 , 10
2015090604 , 04 , 27
2015090605 , 05 , 21
2015090606 , 06 , 37
2015090607 , 07 , 36
2015090608 , 08 , 21
2015090609 , 09 , 21
2015090610 , 10 , 22
2015090611 , 11 , 18
2015090612 , 12 , 27
2015090613 , 13 , 25
2015090614 , 14 , 25
2015090615 , 15 , 18
2015090616 , 16 , 13
2015090617 , 17 , 212015090619 , 19 , 18
2015090620 , 20 , 21
2015090621 , 21 , 14
2015090622 , 22 , 21
2015090623 , 23 , 30
2015090700 , 00 , 28
2015090701 , 01 , 28
2015090702 , 02 , 18
2015090703 , 03 , 21
2015090704 , 04 , 21
2015090705 , 05 , 12
2015090706 , 06 , 26
2015090707 , 07 , 28
2015090708 , 08 , 18
2015090709 , 09 , 22
2015090710 , 10 , 19
2015090711 , 11 , 19
2015090712 , 12 , 10
2015090713 , 13 , 14
2015090714 , 14 , 18
2015090715 , 15 , 20
2015090716 , 16 , 24
2015090717 , 17 , 8
2015090718 , 18 , 17
2015090719 , 19 , 20
2015090720 , 20 , 24
2015090721 , 21 , 15
2015090722 , 22 , 11
2015090723 , 23 , 29
2015090800 , 00 , 20
2015090801 , 01 , 29
2015090802 , 02 , 16
2015090803 , 03 , 23
2015090804 , 04 , 30
2015090805 , 05 , 25
2015090806 , 06 , 25
2015090807 , 07 , 21
2015090808 , 08 , 28
2015090809 , 09 , 14
2015090810 , 10 , 31
2015090811 , 11 , 14
2015090812 , 12 , 15
2015090813 , 13 , 19
2015090814 , 14 , 18
2015090815 , 15 , 13
2015090816 , 16 , 15
2015090817 , 17 , 17
2015090818 , 18 , 16
2015090819 , 19 , 16
2015090820 , 20 , 14
2015090821 , 21 , 21
2015090822 , 22 , 20
2015090823 , 23 , 15
2015090900 , 00 , 19
2015090901 , 01 , 13
2015090902 , 02 , 17
2015090903 , 03 , 18
2015090904 , 04 , 23
2015090905 , 05 , 29
2015090906 , 06 , 26
2015090907 , 07 , 15
2015090908 , 08 , 25
2015090909 , 09 , 20
2015090910 , 10 , 18
2015090911 , 11 , 23
2015090912 , 12 , 20
2015090913 , 13 , 15
2015090914 , 14 , 19
2015090915 , 15 , 18
2015090916 , 16 , 14
2015090917 , 17 , 10
2015090918 , 18 , 19
2015090919 , 19 , 13
2015090920 , 20 , 17
2015090921 , 21 , 15
2015090922 , 22 , 21
2015090923 , 23 , 19
2015091000 , 00 , 14
2015091001 , 01 , 17
2015091002 , 02 , 22
2015091003 , 03 , 17
2015091004 , 04 , 26
2015091005 , 05 , 27
2015091006 , 06 , 18
2015091007 , 07 , 24
2015091008 , 08 , 20
2015091009 , 09 , 18
2015091010 , 10 , 14
2015091011 , 11 , 20
2015091012 , 12 , 32
2015091013 , 13 , 8
2015091014 , 14 , 22
2015091015 , 15 , 18
2015091016 , 16 , 18
2015091017 , 17 , 22
2015091018 , 18 , 17
2015091019 , 19 , 18
2015091020 , 20 , 25
2015091021 , 21 , 14
2015091022 , 22 , 15
2015091023 , 23 , 20
2015091100 , 00 , 17
2015091101 , 01 , 22
2015091102 , 02 , 21
2015091103 , 03 , 19
2015091104 , 04 , 23
2015091105 , 05 , 26
2015091106 , 06 , 16
2015091107 , 07 , 23
2015091108 , 08 , 21
2015091109 , 09 , 16
2015091110 , 10 , 18
2015091111 , 11 , 23
2015091112 , 12 , 16
2015091113 , 13 , 22
2015091114 , 14 , 13
2015091115 , 15 , 18
2015091116 , 16 , 33
2015091117 , 17 , 24
2015091118 , 18 , 12
2015091119 , 19 , 17
2015091120 , 20 , 12
2015091121 , 21 , 22
2015091122 , 22 , 19
2015091123 , 23 , 14
2015091200 , 00 , 22
2015091201 , 01 , 25
2015091202 , 02 , 23
2015091203 , 03 , 18
2015091204 , 04 , 25
2015091205 , 05 , 15
2015091206 , 06 , 17
2015091207 , 07 , 14
2015091208 , 08 , 22
2015091209 , 09 , 15
2015091210 , 10 , 27
2015091211 , 11 , 11
2015091212 , 12 , 18
2015091213 , 13 , 20
2015091214 , 14 , 42
2015091215 , 15 , 11
2015091216 , 16 , 8
2015091217 , 17 , 16
2015091218 , 18 , 14
2015091219 , 19 , 19
2015091220 , 20 , 26
2015091221 , 21 , 22
2015091222 , 22 , 18
2015091223 , 23 , 16
2015091300 , 00 , 22
2015091301 , 01 , 25
2015091302 , 02 , 13
2015091303 , 03 , 22
2015091304 , 04 , 18
2015091305 , 05 , 21
2015091306 , 06 , 17
2015091307 , 07 , 18
2015091308 , 08 , 11
2015091309 , 09 , 15
2015091310 , 10 , 21
2015091311 , 11 , 18
2015091312 , 12 , 23
2015091313 , 13 , 22
2015091314 , 14 , 20
2015091315 , 15 , 21
2015091316 , 16 , 12
2015091317 , 17 , 16
2015091318 , 18 , 15
2015091319 , 19 , 15
2015091320 , 20 , 19
2015091321 , 21 , 27
2015091322 , 22 , 13
2015091323 , 23 , 18
2015091400 , 00 , 27
2015091401 , 01 , 25
2015091402 , 02 , 27
2015091403 , 03 , 23
2015091404 , 04 , 29
2015091405 , 05 , 22
2015091406 , 06 , 17
2015091407 , 07 , 15
2015091408 , 08 , 14
2015091409 , 09 , 16
2015091410 , 10 , 10
2015091411 , 11 , 17
2015091412 , 12 , 19
2015091413 , 13 , 32
2015091414 , 14 , 15
2015091415 , 15 , 16
2015091416 , 16 , 22
2015091417 , 17 , 13
2015091418 , 18 , 12
2015091419 , 19 , 13
2015091420 , 20 , 24
2015091421 , 21 , 13
2015091422 , 22 , 20
2015091423 , 23 , 16
2015091500 , 00 , 31
2015091501 , 01 , 23
2015091502 , 02 , 20
2015091503 , 03 , 21
2015091504 , 04 , 18
2015091505 , 05 , 17
2015091506 , 06 , 20
2015091507 , 07 , 16
2015091508 , 08 , 12
2015091509 , 09 , 19
2015091510 , 10 , 19
2015091511 , 11 , 17
2015091512 , 12 , 15
2015091513 , 13 , 17
2015091514 , 14 , 15
2015091515 , 15 , 13
2015091516 , 16 , 20
2015091517 , 17 , 15
2015091518 , 18 , 18
2015091519 , 19 , 15
2015091520 , 20 , 16
2015091521 , 21 , 21
2015091522 , 22 , 21
2015091523 , 23 , 17
2015091600 , 00 , 17
2015091601 , 01 , 23
2015091602 , 02 , 10
2015091603 , 03 , 18
2015091604 , 04 , 15
2015091605 , 05 , 24
2015091606 , 06 , 21
2015091607 , 07 , 18
2015091608 , 08 , 23
2015091609 , 09 , 21
2015091610 , 10 , 22
2015091611 , 11 , 18
2015091612 , 12 , 14
2015091613 , 13 , 13
2015091614 , 14 , 15
2015091615 , 15 , 14
2015091616 , 16 , 22
2015091617 , 17 , 18
2015091618 , 18 , 14
2015091619 , 19 , 14
2015091620 , 20 , 11
2015091621 , 21 , 14
2015091622 , 22 , 19
2015091623 , 23 , 15
2015091700 , 00 , 19
2015091701 , 01 , 11
2015091702 , 02 , 8
2015091703 , 03 , 14
2015091704 , 04 , 20
2015091705 , 05 , 17
2015091706 , 06 , 12
2015091707 , 07 , 18
2015091708 , 08 , 16
2015091709 , 09 , 12
2015091710 , 10 , 13
2015091711 , 11 , 14
2015091712 , 12 , 21
2015091713 , 13 , 24
2015091714 , 14 , 23
2015091715 , 15 , 19
2015091716 , 16 , 13
2015091717 , 17 , 16
2015091718 , 18 , 25
2015091719 , 19 , 12
2015091720 , 20 , 20
2015091721 , 21 , 8
2015091722 , 22 , 15
2015091723 , 23 , 13
2015091800 , 00 , 21
2015091801 , 01 , 24
2015091802 , 02 , 20
2015091803 , 03 , 22
2015091804 , 04 , 18
2015091805 , 05 , 19
2015091806 , 06 , 20
2015091807 , 07 , 16
2015091808 , 08 , 14
2015091809 , 09 , 14
2015091810 , 10 , 18
2015091811 , 11 , 11
2015091812 , 12 , 15
2015091813 , 13 , 16
2015091814 , 14 , 17
2015091815 , 15 , 22
2015091816 , 16 , 22
2015091817 , 17 , 13
2015091818 , 18 , 20
2015091819 , 19 , 26
2015091820 , 20 , 18
2015091821 , 21 , 31
2015091822 , 22 , 17
2015091823 , 23 , 21
2015091900 , 00 , 23
2015091901 , 01 , 11
2015091902 , 02 , 20
2015091903 , 03 , 11
2015091904 , 04 , 14
2015091905 , 05 , 17
2015091906 , 06 , 22
2015091907 , 07 , 23
2015091908 , 08 , 14
2015091909 , 09 , 17
2015091910 , 10 , 22
2015091911 , 11 , 11
2015091912 , 12 , 19
2015091913 , 13 , 13
2015091914 , 14 , 11
2015091915 , 15 , 22
2015091916 , 16 , 23
2015091917 , 17 , 10
2015091918 , 18 , 25
2015091919 , 19 , 22
2015091920 , 20 , 17
2015091921 , 21 , 23
2015091922 , 22 , 15
2015091923 , 23 , 18
2015092000 , 00 , 19
2015092001 , 01 , 15
2015092002 , 02 , 14
2015092003 , 03 , 16
2015092004 , 04 , 22
2015092005 , 05 , 30
2015092006 , 06 , 19
2015092007 , 07 , 23
2015092008 , 08 , 18
2015092009 , 09 , 20
2015092010 , 10 , 15
2015092011 , 11 , 18
2015092012 , 12 , 15
2015092013 , 13 , 16
2015092014 , 14 , 14
2015092015 , 15 , 18
2015092016 , 16 , 31
2015092017 , 17 , 17
2015092018 , 18 , 19
2015092019 , 19 , 21
2015092020 , 20 , 22
2015092021 , 21 , 18
2015092022 , 22 , 22
2015092023 , 23 , 22
2015092100 , 00 , 19
2015092101 , 01 , 23
2015092102 , 02 , 13
2015092103 , 03 , 9
2015092104 , 04 , 20
2015092105 , 05 , 14
2015092106 , 06 , 26
2015092107 , 07 , 23
2015092108 , 08 , 26
2015092109 , 09 , 18
2015092110 , 10 , 16
2015092111 , 11 , 20
2015092112 , 12 , 19
2015092113 , 13 , 12
2015092114 , 14 , 18
2015092115 , 15 , 14
2015092116 , 16 , 20
2015092117 , 17 , 15
2015092118 , 18 , 16
2015092119 , 19 , 18
2015092120 , 20 , 17
2015092121 , 21 , 10
2015092122 , 22 , 16
2015092123 , 23 , 18
2015092200 , 00 , 20
2015092201 , 01 , 11
2015092202 , 02 , 20
2015092203 , 03 , 10
2015092204 , 04 , 21
2015092205 , 05 , 10
2015092206 , 06 , 26
2015092207 , 07 , 20
2015092208 , 08 , 19
2015092209 , 09 , 22
2015092210 , 10 , 21
2015092211 , 11 , 20
2015092212 , 12 , 24
2015092213 , 13 , 10
2015092214 , 14 , 20
2015092215 , 15 , 15
2015092216 , 16 , 17
2015092217 , 17 , 14
2015092218 , 18 , 23
2015092219 , 19 , 16
2015092220 , 20 , 19
2015092221 , 21 , 17
2015092222 , 22 , 18
2015092223 , 23 , 21
2015092300 , 00 , 19
2015092301 , 01 , 20
2015092302 , 02 , 26
2015092303 , 03 , 22
2015092304 , 04 , 14
2015092305 , 05 , 25
2015092306 , 06 , 24
2015092307 , 07 , 11
2015092308 , 08 , 23
2015092309 , 09 , 22
2015092310 , 10 , 26
2015092311 , 11 , 24
2015092312 , 12 , 27
2015092313 , 13 , 17
2015092314 , 14 , 17
2015092315 , 15 , 16
2015092316 , 16 , 18
2015092317 , 17 , 12
2015092318 , 18 , 24
2015092619 , 19 , 5
2015092620 , 20 , 13
2015092621 , 21 , 19
2015092622 , 22 , 11
2015092623 , 23 , 10
2015092700 , 00 , 15
2015092701 , 01 , 11
2015092702 , 02 , 8
2015092703 , 03 , 16
2015092704 , 04 , 11
2015092705 , 05 , 13
2015092706 , 06 , 15
2015092707 , 07 , 16
2015092708 , 08 , 29
2015092709 , 09 , 21
2015092710 , 10 , 19
2015092711 , 11 , 18
2015092712 , 12 , 24
2015092713 , 13 , 14
2015092714 , 14 , 11
2015092715 , 15 , 17
2015092716 , 16 , 13
2015092717 , 17 , 13
2015092718 , 18 , 17
2015092719 , 19 , 13
2015092720 , 20 , 14
2015092721 , 21 , 20
2015092722 , 22 , 20
2015092723 , 23 , 14
2015092800 , 00 , 14
2015092801 , 01 , 18
2015092802 , 02 , 14
2015092803 , 03 , 19
2015092804 , 04 , 15
2015092805 , 05 , 18
2015092806 , 06 , 17
2015092807 , 07 , 14
2015092808 , 08 , 21
2015092809 , 09 , 8
2015092810 , 10 , 21
2015092811 , 11 , 14
2015092812 , 12 , 9
2015092813 , 13 , 21
2015092814 , 14 , 18
2015092815 , 15 , 16
2015092816 , 16 , 15
2015092817 , 17 , 17
2015092818 , 18 , 9
2015092819 , 19 , 21
2015092820 , 20 , 15
2015092821 , 21 , 18
2015092822 , 22 , 8
2015092823 , 23 , 13
2015092900 , 00 , 16
2015092901 , 01 , 19
2015092902 , 02 , 29
2015092903 , 03 , 21
2015092904 , 04 , 20
2015092905 , 05 , 15
2015092906 , 06 , 26
2015092907 , 07 , 11
2015092908 , 08 , 19
2015092909 , 09 , 26
2015092910 , 10 , 14
2015092911 , 11 , 22
2015092912 , 12 , 18
2015092913 , 13 , 19
2015092914 , 14 , 18
2015092915 , 15 , 12
2015092916 , 16 , 14
2015092917 , 17 , 11
2015092918 , 18 , 13
2015092919 , 19 , 22
2015092920 , 20 , 20
2015092921 , 21 , 24
2015092922 , 22 , 14
2015092923 , 23 , 22
2015093000 , 00 , 19
2015093001 , 01 , 22
2015093002 , 02 , 13
2015093003 , 03 , 17
2015093004 , 04 , 14
2015093005 , 05 , 26
2015093006 , 06 , 21
2015093007 , 07 , 21
2015093008 , 08 , 21
2015093009 , 09 , 16
2015093010 , 10 , 13
2015093011 , 11 , 14
2015093012 , 12 , 12
2015093013 , 13 , 15
2015093014 , 14 , 16
2015093015 , 15 , 14
2015093016 , 16 , 19
2015093017 , 17 , 10
2015093018 , 18 , 19
2015093019 , 19 , 11
2015093020 , 20 , 17
2015093021 , 21 , 17
2015093022 , 22 , 15
2015093023 , 23 , 15
